Weather History for Akron, CO

Change the Weather History Date:

Tuesday, October 22, 2013

  Actual Average Record
Temperature  
Mean Temperature 52 °F 48 °F  
Max Temperature 65 °F 62 °F 84 °F (2003)
Min Temperature 39 °F 35 °F 24 °F (1984)
Degree Days  
Heating Degree Days 13    
Month to date heating degree days 364  
Cooling Degree Days 0    
Month to date cooling degree days 0  
Growing Degree Days 2 (Base 50)    
Moisture  
Dew Point 34 °F    
Average Humidity 55    
Maximum Humidity 79    
Minimum Humidity 30    
Precipitation  
Precipitation 0.00 in 0.04 in 0.50 in (1955)
Month to date precipitation 1.08 0.88  
Year to date precipitation 16.79 15.53  
Sea Level Pressure  
Sea Level Pressure 30.09 in    
Wind  
Wind Speed 9 mph (West)    
Max Wind Speed 23 mph    
Max Gust Speed 29 mph    
Visibility 10 miles    
Events      
T = Trace of Precipitation, MM = Missing Value Source: NWS Daily Summary

Daily Weather History Graph

Daily Weather History Graph

Search for Another Location

Airport:

Trip Planner

Search our weather history database for the weather conditions in past years. The results will help you decide how hot, cold, wet, or windy it might be!

Date:

Astronomy

Oct. 22, 2013 Rise Set
Actual Time 7:11 AM MDT 6:02 PM MDT
Civil Twilight 6:43 AM MDT 6:30 PM MDT
Nautical Twilight 6:11 AM MDT 7:01 PM MDT
Astronomical Twilight 5:40 AM MDT 7:33 PM MDT
Moon 8:44 PM MDT (10/22) 10:41 AM MDT (10/22)
Length of Visible Light 11h 46m
Length of Day
10h 51m
Waning Gibbous, 86% of the Moon is Illuminated
Oct 22
Waning Gibbous
Oct 26
Last Quarter
Nov 3
New
Nov 9
First Quarter
Nov 17
Full

Hourly Weather History & Observations

Time (MDT) Temp. Windchill Dew Point Humidity Pressure Visibility Wind Dir Wind Speed Gust Speed Precip Events Conditions
12:53 AM 46.0 °F 41.9 °F 34.0 °F 63% 30.08 in 10.0 mi West 8.1 mph - N/A   Overcast
1:53 AM 48.0 °F - 33.1 °F 56% 30.08 in 10.0 mi WNW 8.1 mph - N/A   Overcast
2:53 AM 46.9 °F - 34.0 °F 61% 30.08 in 10.0 mi WNW 9.2 mph - N/A   Overcast
3:53 AM 46.9 °F - 34.0 °F 61% 30.07 in 10.0 mi WNW 9.2 mph - N/A   Overcast
4:53 AM 45.0 °F 41.8 °F 35.1 °F 68% 30.09 in 10.0 mi West 5.8 mph - N/A   Overcast
5:53 AM 43.0 °F 38.2 °F 35.1 °F 74% 30.12 in 10.0 mi West 8.1 mph - N/A   Overcast
6:53 AM 43.0 °F 37.7 °F 34.0 °F 71% 30.13 in 10.0 mi West 9.2 mph - N/A   Overcast
7:53 AM 39.9 °F 34.5 °F 34.0 °F 79% 30.16 in 10.0 mi West 8.1 mph - N/A   Partly Cloudy
8:53 AM 45.0 °F 38.2 °F 35.1 °F 68% 30.15 in 10.0 mi West 15.0 mph - N/A   Partly Cloudy
9:53 AM 51.1 °F - 35.1 °F 54% 30.16 in 10.0 mi WNW 15.0 mph - N/A   Partly Cloudy
10:53 AM 55.9 °F - 37.0 °F 49% 30.12 in 10.0 mi West 13.8 mph - N/A   Clear
11:53 AM 61.0 °F - 34.0 °F 36% 30.10 in 10.0 mi NW 20.7 mph 26.5 mph N/A   Clear
12:53 PM 62.1 °F - 36.0 °F 38% 30.08 in 10.0 mi West 15.0 mph 28.8 mph N/A   Clear
1:53 PM 64.0 °F - 36.0 °F 35% 30.05 in 10.0 mi WNW 18.4 mph 24.2 mph N/A   Mostly Cloudy
2:53 PM 64.0 °F - 32.0 °F 30% 30.04 in 10.0 mi NW 11.5 mph - N/A   Clear
3:53 PM 64.0 °F - 32.0 °F 30% 30.04 in 10.0 mi NNW 12.7 mph - N/A   Clear
4:53 PM 63.0 °F - 33.1 °F 33% 30.05 in 10.0 mi NNW 6.9 mph - N/A   Clear
5:53 PM 57.0 °F - 34.0 °F 42% 30.06 in 10.0 mi NE 4.6 mph - N/A   Clear
6:53 PM 53.1 °F - 35.1 °F 50% 30.09 in 10.0 mi SE 4.6 mph - N/A   Clear
7:53 PM 52.0 °F - 35.1 °F 53% 30.10 in 10.0 mi ESE 4.6 mph - N/A   Clear
8:53 PM 46.9 °F - 35.1 °F 63% 30.10 in 10.0 mi South 5.8 mph - N/A   Clear
9:53 PM 46.9 °F - 34.0 °F 61% 30.09 in 10.0 mi South 8.1 mph - N/A   Clear
10:53 PM 46.9 °F - 33.1 °F 59% 30.07 in 10.0 mi South 6.9 mph - N/A   Clear
11:53 PM 44.1 °F 41.5 °F 32.0 °F 63% 30.06 in 10.0 mi SE 4.6 mph - N/A   Clear